Time,TemperatureF,DewpointF,PressureIn,WindDirection,WindDirectionDegrees,WindSpeedMPH,WindSpeedGustMPH,Humidity,HourlyPrecipIn,Conditions,Clouds,dailyrainin,SoftwareType,DateUTC
2013-01-11 00:12:00,37.3,34.0,30.24,SSE,149,12.0,16.0,86,0.00,,,0.00,weatherlink.com 1.10,2013-01-11 05:12:00,
2013-01-11 00:27:00,37.3,34.0,30.23,South,177,9.0,16.0,87,0.00,,,0.00,weatherlink.com 1.10,2013-01-11 05:27:00,
2013-01-11 00:42:00,37.3,34.0,30.21,SE,140,13.0,18.0,87,0.00,,,0.00,weatherlink.com 1.10,2013-01-11 05:42:00,
2013-01-11 00:57:00,37.2,33.0,30.20,SSE,150,8.0,19.0,86,0.00,,,0.00,weatherlink.com 1.10,2013-01-11 05:57:00,
2013-01-11 01:12:00,37.3,34.0,30.19,SE,140,5.0,19.0,86,0.00,,,0.00,weatherlink.com 1.10,2013-01-11 06:12:00,
2013-01-11 01:27:00,37.4,34.0,30.18,ESE,119,5.0,18.0,86,0.00,,,0.00,weatherlink.com 1.10,2013-01-11 06:27:00,
2013-01-11 01:42:00,37.4,33.0,30.17,SE,141,6.0,14.0,85,0.00,,,0.00,weatherlink.com 1.10,2013-01-11 06:42:00,
2013-01-11 01:57:00,37.5,34.0,30.17,SE,129,9.0,16.0,86,0.00,,,0.00,weatherlink.com 1.10,2013-01-11 06:57:00,
2013-01-11 02:12:00,37.6,34.0,30.16,ESE,119,7.0,15.0,85,0.00,,,0.00,weatherlink.com 1.10,2013-01-11 07:12:00,
2013-01-11 02:27:00,37.7,34.0,30.15,ESE,123,3.0,13.0,85,0.00,,,0.00,weatherlink.com 1.10,2013-01-11 07:27:00,
2013-01-11 02:42:00,37.8,34.0,30.14,ESE,121,4.0,12.0,85,0.00,,,0.00,weatherlink.com 1.10,2013-01-11 07:42:00,
2013-01-11 02:57:00,37.9,34.0,30.14,SSE,149,10.0,17.0,85,0.00,,,0.00,weatherlink.com 1.10,2013-01-11 07:57:00,
2013-01-11 03:12:00,37.3,34.0,30.12,SE,130,8.0,17.0,88,0.01,,,0.01,weatherlink.com 1.10,2013-01-11 08:12:00,
2013-01-11 03:27:00,36.9,34.0,30.10,SE,136,13.0,18.0,90,0.02,,,0.02,weatherlink.com 1.10,2013-01-11 08:27:00,
2013-01-11 03:42:00,36.6,34.0,30.09,SE,136,12.0,17.0,91,0.04,,,0.04,weatherlink.com 1.10,2013-01-11 08:42:00,
2013-01-11 03:57:00,36.5,34.0,30.07,SE,146,10.0,17.0,91,0.04,,,0.04,weatherlink.com 1.10,2013-01-11 08:57:00,
2013-01-11 04:12:00,36.5,34.0,30.06,SSE,147,12.0,19.0,91,0.05,,,0.06,weatherlink.com 1.10,2013-01-11 09:12:00,
2013-01-11 04:42:00,36.2,34.0,30.03,SE,136,10.0,17.0,92,0.08,,,0.12,weatherlink.com 1.10,2013-01-11 09:42:00,
2013-01-11 04:57:00,36.1,34.0,30.02,ESE,123,7.0,18.0,93,0.11,,,0.15,weatherlink.com 1.10,2013-01-11 09:57:00,
2013-01-11 05:12:00,36.0,34.0,30.02,South,179,5.0,13.0,93,0.14,,,0.20,weatherlink.com 1.10,2013-01-11 10:12:00,
2013-01-11 05:27:00,36.0,35.0,30.01,SE,140,11.0,23.0,94,0.16,,,0.24,weatherlink.com 1.10,2013-01-11 10:27:00,
2013-01-11 05:42:00,36.2,35.0,30.00,SSE,151,5.0,17.0,94,0.16,,,0.28,weatherlink.com 1.10,2013-01-11 10:42:00,
2013-01-11 05:57:00,36.2,35.0,29.97,SE,127,11.0,19.0,94,0.16,,,0.31,weatherlink.com 1.10,2013-01-11 10:57:00,
2013-01-11 06:12:00,36.2,35.0,29.95,SSE,157,11.0,21.0,94,0.14,,,0.34,weatherlink.com 1.10,2013-01-11 11:12:00,
2013-01-11 06:27:00,36.5,35.0,29.95,ESE,123,12.0,20.0,95,0.10,,,0.35,weatherlink.com 1.10,2013-01-11 11:27:00,
2013-01-11 06:42:00,36.6,35.0,29.94,SE,143,12.0,23.0,95,0.08,,,0.36,weatherlink.com 1.10,2013-01-11 11:42:00,
2013-01-11 06:57:00,37.0,36.0,29.93,ESE,121,7.0,19.0,95,0.06,,,0.38,weatherlink.com 1.10,2013-01-11 11:57:00,
2013-01-11 07:27:00,37.3,36.0,29.91,ESE,121,11.0,22.0,95,0.06,,,0.41,weatherlink.com 1.10,2013-01-11 12:27:00,
2013-01-11 07:42:00,37.4,36.0,29.90,SE,124,15.0,24.0,95,0.06,,,0.42,weatherlink.com 1.10,2013-01-11 12:42:00,
2013-01-11 07:57:00,37.5,36.0,29.88,ESE,111,12.0,18.0,95,0.06,,,0.44,weatherlink.com 1.10,2013-01-11 12:57:00,
2013-01-11 08:12:00,37.5,36.0,29.87,SSE,150,11.0,22.0,95,0.06,,,0.45,weatherlink.com 1.10,2013-01-11 13:12:00,
2013-01-11 08:27:00,37.8,37.0,29.87,SE,139,11.0,23.0,95,0.04,,,0.45,weatherlink.com 1.10,2013-01-11 13:27:00,
2013-01-11 08:42:00,37.9,37.0,29.87,SE,146,15.0,20.0,95,0.04,,,0.46,weatherlink.com 1.10,2013-01-11 13:42:00,
2013-01-11 08:57:00,38.1,37.0,29.85,SE,143,24.0,24.0,95,0.02,,,0.46,weatherlink.com 1.10,2013-01-11 13:57:00,
2013-01-11 09:12:00,38.4,37.0,29.83,SE,146,9.0,21.0,95,0.01,,,0.46,weatherlink.com 1.10,2013-01-11 14:12:00,
2013-01-11 09:27:00,38.6,37.0,29.82,SE,136,9.0,21.0,95,0.02,,,0.47,weatherlink.com 1.10,2013-01-11 14:27:00,
2013-01-11 09:42:00,38.7,37.0,29.81,ESE,118,14.0,19.0,95,0.02,,,0.48,weatherlink.com 1.10,2013-01-11 14:42:00,
2013-01-11 09:57:00,38.8,38.0,29.80,ESE,120,13.0,18.0,95,0.02,,,0.48,weatherlink.com 1.10,2013-01-11 14:57:00,
2013-01-11 10:13:00,38.8,38.0,29.80,ESE,111,5.0,17.0,95,0.02,,,0.48,weatherlink.com 1.10,2013-01-11 15:13:00,
2013-01-11 10:28:00,38.8,38.0,29.80,SSE,148,3.0,18.0,95,0.01,,,0.48,weatherlink.com 1.10,2013-01-11 15:28:00,
2013-01-11 10:43:00,38.8,38.0,29.80,SE,146,4.0,18.0,95,0.00,,,0.48,weatherlink.com 1.10,2013-01-11 15:43:00,
2013-01-11 10:58:00,38.6,37.0,29.80,SE,141,4.0,15.0,94,0.00,,,0.48,weatherlink.com 1.10,2013-01-11 15:58:00,
2013-01-11 11:13:00,38.4,37.0,29.80,SSW,200,3.0,10.0,94,0.00,,,0.48,weatherlink.com 1.10,2013-01-11 16:13:00,
2013-01-11 11:28:00,38.4,37.0,29.80,SSE,160,3.0,8.0,95,0.00,,,0.48,weatherlink.com 1.10,2013-01-11 16:28:00,
2013-01-11 11:43:00,38.3,37.0,29.79,South,171,2.0,12.0,95,0.00,,,0.48,weatherlink.com 1.10,2013-01-11 16:43:00,
2013-01-11 11:58:00,38.3,37.0,29.78,SSW,208,6.0,10.0,95,0.01,,,0.49,weatherlink.com 1.10,2013-01-11 16:58:00,
2013-01-11 12:13:00,38.2,37.0,29.76,South,184,3.0,11.0,95,0.01,,,0.49,weatherlink.com 1.10,2013-01-11 17:13:00,
2013-01-11 12:28:00,38.0,37.0,29.75,SSE,159,4.0,13.0,95,0.02,,,0.50,weatherlink.com 1.10,2013-01-11 17:28:00,
2013-01-11 12:43:00,38.2,37.0,29.74,South,188,6.0,12.0,95,0.04,,,0.52,weatherlink.com 1.10,2013-01-11 17:43:00,
2013-01-11 12:58:00,38.0,37.0,29.74,SE,141,4.0,8.0,95,0.03,,,0.52,weatherlink.com 1.10,2013-01-11 17:58:00,
2013-01-11 13:13:00,38.0,37.0,29.74,SE,142,5.0,8.0,95,0.03,,,0.52,weatherlink.com 1.10,2013-01-11 18:13:00,
2013-01-11 13:28:00,38.0,37.0,29.73,SE,131,1.0,8.0,95,0.03,,,0.53,weatherlink.com 1.10,2013-01-11 18:28:00,
2013-01-11 13:43:00,38.0,37.0,29.73,SSE,158,1.0,7.0,95,0.01,,,0.53,weatherlink.com 1.10,2013-01-11 18:43:00,
2013-01-11 13:58:00,38.3,37.0,29.72,SSE,158,3.0,7.0,95,0.01,,,0.53,weatherlink.com 1.10,2013-01-11 18:58:00,
2013-01-11 14:13:00,38.4,37.0,29.71,SE,137,4.0,7.0,95,0.01,,,0.53,weatherlink.com 1.10,2013-01-11 19:13:00,
2013-01-11 14:28:00,38.4,37.0,29.71,SE,136,5.0,8.0,95,0.00,,,0.53,weatherlink.com 1.10,2013-01-11 19:28:00,
2013-01-11 14:43:00,38.4,37.0,29.71,SSE,153,3.0,7.0,95,0.00,,,0.53,weatherlink.com 1.10,2013-01-11 19:43:00,
2013-01-11 14:58:00,38.3,37.0,29.72,SE,135,2.0,5.0,95,0.00,,,0.53,weatherlink.com 1.10,2013-01-11 19:58:00,
2013-01-11 15:13:00,38.2,37.0,29.72,SE,141,1.0,5.0,96,0.00,,,0.53,weatherlink.com 1.10,2013-01-11 20:13:00,
2013-01-11 15:28:00,38.1,37.0,29.72,SE,143,2.0,4.0,96,0.00,,,0.53,weatherlink.com 1.10,2013-01-11 20:28:00,
2013-01-11 15:43:00,38.1,37.0,29.72,SE,139,5.0,6.0,95,0.00,,,0.53,weatherlink.com 1.10,2013-01-11 20:43:00,
2013-01-11 15:58:00,38.0,37.0,29.72,SSE,167,1.0,5.0,96,0.00,,,0.00,weatherlink.com 1.10,2013-01-11 20:58:00,
2013-01-11 16:13:00,38.0,37.0,29.72,SE,142,4.0,5.0,96,0.00,,,0.00,weatherlink.com 1.10,2013-01-11 21:13:00,
2013-01-11 16:28:00,38.0,37.0,29.72,ESE,122,2.0,6.0,96,0.00,,,0.00,weatherlink.com 1.10,2013-01-11 21:28:00,
2013-01-11 16:43:00,38.0,37.0,29.73,SE,135,0.0,3.0,96,0.00,,,0.00,weatherlink.com 1.10,2013-01-11 21:43:00,
2013-01-11 16:58:00,38.0,37.0,29.73,SSE,154,0.0,3.0,96,0.00,,,0.00,weatherlink.com 1.10,2013-01-11 21:58:00,
2013-01-11 17:13:00,37.9,37.0,29.72,SE,138,1.0,4.0,96,0.00,,,0.00,weatherlink.com 1.10,2013-01-11 22:13:00,
2013-01-11 17:28:00,37.9,37.0,29.70,ESE,117,4.0,7.0,96,0.00,,,0.00,weatherlink.com 1.10,2013-01-11 22:28:00,
2013-01-11 17:43:00,37.9,37.0,29.72,SSE,167,3.0,7.0,96,0.00,,,0.00,weatherlink.com 1.10,2013-01-11 22:43:00,
2013-01-11 17:58:00,38.1,37.0,29.72,SSE,159,3.0,7.0,96,0.00,,,0.00,weatherlink.com 1.10,2013-01-11 22:58:00,
2013-01-11 18:13:00,38.5,38.0,29.73,SSE,165,2.0,8.0,96,0.00,,,0.00,weatherlink.com 1.10,2013-01-11 23:13:00,
2013-01-11 18:28:00,38.8,38.0,29.74,South,178,2.0,5.0,96,0.00,,,0.00,weatherlink.com 1.10,2013-01-11 23:28:00,
2013-01-11 18:43:00,38.7,38.0,29.75,South,182,1.0,7.0,96,0.00,,,0.00,weatherlink.com 1.10,2013-01-11 23:43:00,
2013-01-11 18:58:00,38.6,38.0,29.76,South,178,2.0,5.0,96,0.00,,,0.00,weatherlink.com 1.10,2013-01-11 23:58:00,
2013-01-11 19:13:00,38.5,38.0,29.75,SSE,155,3.0,4.0,96,0.00,,,0.00,weatherlink.com 1.10,2013-01-12 00:13:00,
2013-01-11 19:28:00,38.7,38.0,29.74,SSE,151,3.0,7.0,96,0.00,,,0.00,weatherlink.com 1.10,2013-01-12 00:28:00,
2013-01-11 19:44:00,38.7,38.0,29.75,South,170,2.0,5.0,96,0.00,,,0.00,weatherlink.com 1.10,2013-01-12 00:44:00,
2013-01-11 19:59:00,38.5,38.0,29.75,South,169,1.0,6.0,96,0.00,,,0.00,weatherlink.com 1.10,2013-01-12 00:59:00,
2013-01-11 20:14:00,38.7,38.0,29.75,SSE,159,2.0,4.0,97,0.00,,,0.00,weatherlink.com 1.10,2013-01-12 01:14:00,
2013-01-11 20:29:00,38.7,38.0,29.75,South,178,1.0,6.0,97,0.00,,,0.00,weatherlink.com 1.10,2013-01-12 01:29:00,
2013-01-11 20:44:00,38.9,38.0,29.77,SSE,162,1.0,4.0,97,0.00,,,0.00,weatherlink.com 1.10,2013-01-12 01:44:00,
2013-01-11 20:59:00,38.9,38.0,29.77,SSE,152,1.0,2.0,97,0.00,,,0.00,weatherlink.com 1.10,2013-01-12 01:59:00,
2013-01-11 21:14:00,38.6,38.0,29.77,ESE,113,2.0,3.0,96,0.00,,,0.00,weatherlink.com 1.10,2013-01-12 02:14:00,
2013-01-11 21:29:00,38.9,38.0,29.76,ESE,106,2.0,3.0,97,0.00,,,0.00,weatherlink.com 1.10,2013-01-12 02:29:00,
2013-01-11 21:44:00,38.8,38.0,29.76,ESE,111,1.0,3.0,96,0.00,,,0.00,weatherlink.com 1.10,2013-01-12 02:44:00,
2013-01-11 21:59:00,39.0,38.0,29.77,ESE,111,0.0,2.0,97,0.00,,,0.00,weatherlink.com 1.10,2013-01-12 02:59:00,
2013-01-11 22:14:00,39.4,39.0,29.75,SE,128,1.0,3.0,97,0.00,,,0.00,weatherlink.com 1.10,2013-01-12 03:14:00,
2013-01-11 22:29:00,40.3,40.0,29.74,SSE,148,1.0,5.0,97,0.00,,,0.00,weatherlink.com 1.10,2013-01-12 03:29:00,
2013-01-11 22:44:00,41.4,41.0,29.76,SE,143,3.0,10.0,97,0.00,,,0.00,weatherlink.com 1.10,2013-01-12 03:44:00,
2013-01-11 22:59:00,41.4,41.0,29.75,SE,144,2.0,7.0,97,0.00,,,0.00,weatherlink.com 1.10,2013-01-12 03:59:00,
2013-01-11 23:14:00,41.2,40.0,29.74,South,169,2.0,7.0,97,0.00,,,0.00,weatherlink.com 1.10,2013-01-12 04:14:00,
2013-01-11 23:29:00,41.3,41.0,29.77,South,190,1.0,3.0,97,0.00,,,0.00,weatherlink.com 1.10,2013-01-12 04:29:00,
2013-01-11 23:44:00,41.8,41.0,29.79,South,190,1.0,10.0,97,0.00,,,0.00,weatherlink.com 1.10,2013-01-12 04:44:00,
2013-01-11 23:59:00,42.7,42.0,29.78,SSE,167,1.0,10.0,97,0.00,,,0.00,weatherlink.com 1.10,2013-01-12 04:59:00,